Tracking 29892 objects as of 21-Nov-2024
HD Live streaming from Space Station
objects crossing your sky now

NIMBUS 2 DEB

Track NIMBUS 2 DEB now!
10-day predictions


NORAD ID: 37888
Int'l Code: 1966-040AT
Perigee: 1,054.0 km
Apogee: 1,123.4 km
Inclination: 100.6 °
Period: 106.9 minutes
Semi major axis: 7459 km
RCS: 0.036 m2 (small)
Launch date: May 15, 1966
Source: United States (US)
Launch site: AIR FORCE WESTERN TEST RANGE (AFWTR)

Note: This is SATELLITE DEBRIS
Your satellite tracking list
Your tracking list is empty




NASA's NSSDC Master Catalog

Two Line Element Set (TLE):
1 37888U 66040AT  24324.91348625  .00002860  00000-0  47270-2 0  9991
2 37888 100.6116 314.2593 0046464 165.8703 259.5254 13.47474204758684
Source of the keplerian elements: AFSPC